Location: Arbon
(43.0005°N, 0.7472°E)
Time: 22:03:45
(UTC+00:00)

Explorer 7 - Pass Details

Date: 03 December 2020
Orbit: 484 x 678 km, 50.3° (Epoch: 25 January)

Event Time Altitude Azimuth Distance (km) Brightness Sun altitude
Rises 01:30:44 0° 260° (W) 2,959 - -60.0°
Reaches altitude 10° 01:33:13 10° 267° (W) 2,024 - -59.6°
Maximum altitude 01:37:41 46° 341° (NNW) 831 - -59.0°
Drops below altitude 10° 01:41:56 10° 55° (NE) 1,914 - -58.3°
Sets 01:44:13 0° 61° (ENE) 2,780 - -57.9°
